Time,TemperatureF,DewpointF,PressureIn,WindDirection,WindDirectionDegrees,WindSpeedMPH,WindSpeedGustMPH,Humidity,HourlyPrecipIn,Conditions,Clouds,dailyrainin,SoftwareType,DateUTC
2013-02-21 00:02:00,28.0,18.0,29.64,WSW,248,5.0,15.0,65,0.00,,,0.06,,2013-02-21 05:02:00,
2013-02-21 00:12:00,28.0,18.0,29.64,WSW,248,5.0,15.0,65,0.00,,,0.06,,2013-02-21 05:12:00,
2013-02-21 00:22:00,28.0,18.0,29.65,West,274,5.0,15.0,65,0.00,,,0.03,,2013-02-21 05:22:00,
2013-02-21 00:35:00,27.0,17.0,29.65,WNW,284,6.0,15.0,65,0.00,,,0.03,,2013-02-21 05:35:00,
2013-02-21 00:45:00,27.0,17.0,29.65,WNW,284,6.0,15.0,65,0.00,,,0.03,,2013-02-21 05:45:00,
2013-02-21 01:01:00,27.0,17.0,29.65,WNW,284,4.0,13.0,66,0.00,,,0.03,,2013-02-21 06:01:00,
2013-02-21 01:11:00,27.0,17.0,29.65,WSW,244,4.0,9.0,66,0.00,,,0.03,,2013-02-21 06:11:00,
2013-02-21 01:21:00,27.0,17.0,29.65,West,274,5.0,13.0,66,0.00,,,0.00,,2013-02-21 06:21:00,
2013-02-21 01:31:00,27.0,18.0,29.65,West,270,5.0,10.0,67,0.00,,,0.00,,2013-02-21 06:31:00,
2013-02-21 01:41:00,27.0,18.0,29.65,West,270,5.0,10.0,67,0.00,,,0.00,,2013-02-21 06:41:00,
2013-02-21 01:52:00,27.0,18.0,29.65,West,263,3.0,10.0,67,0.00,,,0.00,,2013-02-21 06:52:00,
2013-02-21 02:01:00,27.0,17.0,29.65,WSW,257,7.0,11.0,66,0.00,,,0.00,,2013-02-21 07:01:00,
2013-02-21 02:11:00,27.0,18.0,29.65,West,280,6.0,14.0,67,0.00,,,0.00,,2013-02-21 07:11:00,
2013-02-21 02:21:00,27.0,18.0,29.65,West,280,6.0,14.0,67,0.00,,,0.00,,2013-02-21 07:21:00,
2013-02-21 02:32:00,27.0,18.0,29.65,WNW,286,4.0,10.0,67,0.00,,,0.00,,2013-02-21 07:32:00,
2013-02-21 02:42:00,26.0,17.0,29.65,West,270,7.0,13.0,67,0.00,,,0.00,,2013-02-21 07:42:00,
2013-02-21 02:52:00,26.0,17.0,29.65,West,270,7.0,13.0,67,0.00,,,0.00,,2013-02-21 07:52:00,
2013-02-21 03:01:00,26.0,17.0,29.65,WNW,288,5.0,15.0,68,0.00,,,0.00,,2013-02-21 08:01:00,
2013-02-21 03:11:00,26.0,17.0,29.65,WNW,288,5.0,15.0,68,0.00,,,0.00,,2013-02-21 08:11:00,
2013-02-21 03:21:00,26.0,17.0,29.65,West,270,7.0,12.0,68,0.00,,,0.00,,2013-02-21 08:21:00,
2013-02-21 03:32:00,26.0,17.0,29.65,West,264,3.0,9.0,68,0.00,,,0.00,,2013-02-21 08:32:00,
2013-02-21 03:42:00,26.0,17.0,29.65,West,264,3.0,9.0,68,0.00,,,0.00,,2013-02-21 08:42:00,
2013-02-21 03:52:00,26.0,17.0,29.65,West,280,6.0,12.0,68,0.00,,,0.00,,2013-02-21 08:52:00,
2013-02-21 04:01:00,26.0,17.0,29.66,West,269,4.0,11.0,69,0.00,,,0.00,,2013-02-21 09:01:00,
2013-02-21 04:11:00,26.0,17.0,29.66,West,269,4.0,11.0,69,0.00,,,0.00,,2013-02-21 09:11:00,
2013-02-21 04:22:00,26.0,17.0,29.66,SW,234,5.0,9.0,69,0.00,,,0.00,,2013-02-21 09:22:00,
2013-02-21 04:32:00,25.0,16.0,29.66,West,278,4.0,11.0,69,0.00,,,0.00,,2013-02-21 09:32:00,
2013-02-21 04:42:00,25.0,16.0,29.66,West,278,4.0,11.0,69,0.00,,,0.00,,2013-02-21 09:42:00,
2013-02-21 04:52:00,25.0,17.0,29.66,West,265,4.0,12.0,70,0.00,,,0.00,,2013-02-21 09:52:00,
2013-02-21 05:01:00,25.0,17.0,29.67,West,266,4.0,10.0,70,0.00,,,0.00,,2013-02-21 10:01:00,
2013-02-21 05:11:00,25.0,17.0,29.67,West,266,4.0,10.0,70,0.00,,,0.00,,2013-02-21 10:11:00,
2013-02-21 05:21:00,25.0,17.0,29.67,WNW,294,3.0,12.0,71,0.00,,,0.00,,2013-02-21 10:21:00,
2013-02-21 05:31:00,25.0,17.0,29.67,West,262,6.0,10.0,71,0.00,,,0.00,,2013-02-21 10:31:00,
2013-02-21 05:41:00,25.0,17.0,29.67,West,262,6.0,10.0,71,0.00,,,0.00,,2013-02-21 10:41:00,
2013-02-21 05:51:00,25.0,17.0,29.68,West,267,4.0,13.0,70,0.00,,,0.00,,2013-02-21 10:51:00,
2013-02-21 06:01:00,25.0,16.0,29.68,West,270,2.0,10.0,69,0.00,,,0.00,,2013-02-21 11:01:00,
2013-02-21 06:11:00,25.0,16.0,29.68,West,270,2.0,10.0,69,0.00,,,0.00,,2013-02-21 11:11:00,
2013-02-21 06:21:00,25.0,16.0,29.69,WSW,256,3.0,11.0,67,0.00,,,0.00,,2013-02-21 11:21:00,
2013-02-21 06:31:00,25.0,15.0,29.69,WSW,253,5.0,11.0,66,0.00,,,0.00,,2013-02-21 11:31:00,
2013-02-21 06:41:00,25.0,15.0,29.69,WSW,253,5.0,11.0,66,0.00,,,0.00,,2013-02-21 11:41:00,
2013-02-21 06:52:00,24.0,14.0,29.70,WNW,298,3.0,11.0,65,0.00,,,0.00,,2013-02-21 11:52:00,
2013-02-21 07:01:00,24.0,13.0,29.70,WSW,253,3.0,7.0,63,0.00,,,0.00,,2013-02-21 12:01:00,
2013-02-21 07:11:00,24.0,13.0,29.70,WSW,253,3.0,7.0,63,0.00,,,0.00,,2013-02-21 12:11:00,
2013-02-21 07:22:00,24.0,13.0,29.71,WNW,292,3.0,8.0,62,0.00,,,0.00,,2013-02-21 12:22:00,
2013-02-21 07:32:00,25.0,14.0,29.71,NW,305,2.0,8.0,62,0.00,,,0.00,,2013-02-21 12:32:00,
2013-02-21 07:42:00,25.0,14.0,29.71,NW,305,2.0,8.0,62,0.00,,,0.00,,2013-02-21 12:42:00,
2013-02-21 07:53:00,25.0,13.0,29.72,West,281,2.0,9.0,60,0.00,,,0.00,,2013-02-21 12:53:00,
2013-02-21 08:02:00,26.0,13.0,29.72,West,281,1.0,6.0,58,0.00,,,0.00,,2013-02-21 13:02:00,
2013-02-21 08:12:00,26.0,13.0,29.72,West,281,1.0,6.0,58,0.00,,,0.00,,2013-02-21 13:12:00,
2013-02-21 08:22:00,26.0,12.0,29.73,West,267,6.0,9.0,54,0.00,,,0.00,,2013-02-21 13:22:00,
2013-02-21 08:32:00,25.0,11.0,29.72,WNW,295,4.0,11.0,54,0.00,,,0.00,,2013-02-21 13:32:00,
2013-02-21 08:42:00,25.0,11.0,29.72,WNW,295,4.0,11.0,54,0.00,,,0.00,,2013-02-21 13:42:00,
2013-02-21 08:52:00,26.0,12.0,29.72,West,273,4.0,12.0,54,0.00,,,0.00,,2013-02-21 13:52:00,
2013-02-21 09:02:00,27.0,12.0,29.73,WNW,292,4.0,9.0,52,0.00,,,0.00,,2013-02-21 14:02:00,
2013-02-21 09:11:00,27.0,12.0,29.73,WNW,292,4.0,9.0,52,0.00,,,0.00,,2013-02-21 14:11:00,
2013-02-21 09:22:00,28.0,13.0,29.73,NW,312,3.0,8.0,52,0.00,,,0.00,,2013-02-21 14:22:00,
2013-02-21 09:32:00,27.0,13.0,29.73,NW,323,1.0,10.0,54,0.00,,,0.00,,2013-02-21 14:32:00,
2013-02-21 09:42:00,27.0,13.0,29.73,NW,323,1.0,10.0,54,0.00,,,0.00,,2013-02-21 14:42:00,
2013-02-21 09:52:00,28.0,12.0,29.73,NNE,28,3.0,8.0,51,0.00,,,0.00,,2013-02-21 14:52:00,
2013-02-21 10:02:00,28.0,12.0,29.74,NNW,340,4.0,11.0,51,0.00,,,0.00,,2013-02-21 15:02:00,
2013-02-21 10:12:00,28.0,12.0,29.74,NNW,340,4.0,11.0,51,0.00,,,0.00,,2013-02-21 15:12:00,
2013-02-21 10:22:00,29.0,12.0,29.74,NW,323,7.0,11.0,49,0.00,,,0.00,,2013-02-21 15:22:00,
2013-02-21 10:32:00,28.0,11.0,29.74,NW,311,5.0,16.0,48,0.00,,,0.00,,2013-02-21 15:32:00,
2013-02-21 10:42:00,28.0,11.0,29.74,NW,311,5.0,16.0,48,0.00,,,0.00,,2013-02-21 15:42:00,
2013-02-21 10:52:00,29.0,12.0,29.74,NW,325,5.0,11.0,49,0.00,,,0.00,,2013-02-21 15:52:00,
2013-02-21 11:01:00,29.0,12.0,29.74,WNW,302,3.0,10.0,48,0.00,,,0.00,,2013-02-21 16:01:00,
2013-02-21 11:12:00,30.0,12.0,29.74,North,350,7.0,11.0,47,0.00,,,0.00,,2013-02-21 16:12:00,
2013-02-21 11:22:00,30.0,12.0,29.74,North,350,7.0,11.0,47,0.00,,,0.00,,2013-02-21 16:22:00,
2013-02-21 11:32:00,30.0,13.0,29.74,NNE,16,4.0,10.0,49,0.00,,,0.00,,2013-02-21 16:32:00,
2013-02-21 11:42:00,31.0,15.0,29.74,West,273,3.0,10.0,51,0.00,,,0.00,,2013-02-21 16:42:00,
2013-02-21 11:52:00,31.0,15.0,29.74,West,273,3.0,10.0,51,0.00,,,0.00,,2013-02-21 16:52:00,
2013-02-21 12:01:00,31.0,15.0,29.74,NNW,333,5.0,11.0,50,0.00,,,0.00,,2013-02-21 17:01:00,
2013-02-21 12:11:00,31.0,15.0,29.74,NNW,333,5.0,11.0,50,0.00,,,0.00,,2013-02-21 17:11:00,
2013-02-21 12:21:00,29.0,14.0,29.75,NW,316,4.0,14.0,53,0.00,,,0.00,,2013-02-21 17:21:00,
2013-02-21 12:32:00,29.0,14.0,29.75,North,355,4.0,13.0,52,0.00,,,0.00,,2013-02-21 17:32:00,
2013-02-21 12:42:00,29.0,14.0,29.75,North,355,4.0,13.0,52,0.00,,,0.00,,2013-02-21 17:42:00,
2013-02-21 12:52:00,29.0,15.0,29.75,NNE,12,5.0,12.0,55,0.00,,,0.00,,2013-02-21 17:52:00,
2013-02-21 13:02:00,27.0,18.0,29.76,NNW,337,3.0,12.0,67,0.00,,,0.00,,2013-02-21 18:02:00,
2013-02-21 13:12:00,27.0,18.0,29.76,NNW,337,3.0,12.0,67,0.00,,,0.00,,2013-02-21 18:12:00,
2013-02-21 13:22:00,28.0,18.0,29.75,WSW,257,5.0,10.0,65,0.00,,,0.00,,2013-02-21 18:22:00,
2013-02-21 13:32:00,28.0,16.0,29.75,NNE,28,5.0,11.0,59,0.00,,,0.00,,2013-02-21 18:32:00,
2013-02-21 13:42:00,28.0,16.0,29.75,NNE,28,5.0,11.0,59,0.00,,,0.00,,2013-02-21 18:42:00,
2013-02-21 13:52:00,29.0,17.0,29.76,NW,308,5.0,11.0,60,0.00,,,0.00,,2013-02-21 18:52:00,
2013-02-21 14:01:00,29.0,16.0,29.76,NNW,338,5.0,10.0,57,0.00,,,0.00,,2013-02-21 19:01:00,
2013-02-21 14:12:00,29.0,16.0,29.76,NNW,338,5.0,10.0,57,0.00,,,0.00,,2013-02-21 19:12:00,
2013-02-21 14:21:00,29.0,15.0,29.76,North,5,4.0,13.0,55,0.00,,,0.00,,2013-02-21 19:21:00,
2013-02-21 14:32:00,29.0,16.0,29.77,North,350,5.0,13.0,57,0.00,,,0.00,,2013-02-21 19:32:00,
2013-02-21 14:42:00,29.0,16.0,29.77,North,350,5.0,13.0,57,0.00,,,0.00,,2013-02-21 19:42:00,
2013-02-21 14:52:00,29.0,16.0,29.78,NNW,336,5.0,11.0,57,0.00,,,0.00,,2013-02-21 19:52:00,
2013-02-21 15:01:00,28.0,15.0,29.78,NW,313,4.0,11.0,58,0.00,,,0.00,,2013-02-21 20:01:00,
2013-02-21 15:11:00,28.0,16.0,29.79,WNW,288,5.0,11.0,59,0.00,,,0.00,,2013-02-21 20:11:00,
2013-02-21 15:21:00,28.0,16.0,29.79,WNW,288,5.0,11.0,59,0.00,,,0.00,,2013-02-21 20:21:00,
2013-02-21 15:32:00,28.0,16.0,29.79,WNW,300,5.0,11.0,59,0.00,,,0.00,,2013-02-21 20:32:00,
2013-02-21 15:42:00,28.0,16.0,29.79,WNW,300,5.0,11.0,59,0.00,,,0.00,,2013-02-21 20:42:00,
2013-02-21 15:53:00,28.0,16.0,29.80,NW,314,6.0,11.0,59,0.00,,,0.00,,2013-02-21 20:53:00,
2013-02-21 16:02:00,28.0,16.0,29.81,NW,315,4.0,12.0,60,0.00,,,0.00,,2013-02-21 21:02:00,
2013-02-21 16:12:00,28.0,16.0,29.81,North,360,3.0,11.0,61,0.00,,,0.00,,2013-02-21 21:12:00,
2013-02-21 16:22:00,28.0,16.0,29.81,North,360,3.0,11.0,61,0.00,,,0.00,,2013-02-21 21:22:00,
2013-02-21 16:32:00,28.0,16.0,29.83,NNW,327,4.0,10.0,60,0.00,,,0.00,,2013-02-21 21:32:00,
2013-02-21 16:42:00,28.0,16.0,29.83,NW,313,3.0,11.0,61,0.00,,,0.00,,2013-02-21 21:42:00,
2013-02-21 16:52:00,28.0,16.0,29.83,NW,313,3.0,11.0,61,0.00,,,0.00,,2013-02-21 21:52:00,
2013-02-21 17:01:00,28.0,17.0,29.84,WNW,286,3.0,8.0,62,0.00,,,0.00,,2013-02-21 22:01:00,
2013-02-21 17:11:00,28.0,17.0,29.84,WNW,286,3.0,8.0,62,0.00,,,0.00,,2013-02-21 22:11:00,
2013-02-21 17:21:00,28.0,17.0,29.85,North,350,4.0,11.0,62,0.00,,,0.00,,2013-02-21 22:21:00,
2013-02-21 17:32:00,28.0,17.0,29.86,West,272,4.0,10.0,62,0.00,,,0.00,,2013-02-21 22:32:00,
2013-02-21 17:42:00,28.0,17.0,29.86,West,272,4.0,10.0,62,0.00,,,0.00,,2013-02-21 22:42:00,
2013-02-21 17:52:00,28.0,17.0,29.88,NW,306,4.0,13.0,63,0.00,,,0.00,,2013-02-21 22:52:00,
2013-02-21 18:01:00,29.0,18.0,29.89,NNW,340,3.0,12.0,63,0.00,,,0.00,,2013-02-21 23:01:00,
2013-02-21 18:11:00,29.0,18.0,29.89,NNW,340,3.0,12.0,63,0.00,,,0.00,,2013-02-21 23:11:00,
2013-02-21 18:21:00,29.0,18.0,29.90,NW,319,6.0,12.0,63,0.00,,,0.00,,2013-02-21 23:21:00,
2013-02-21 18:32:00,29.0,18.0,29.91,NW,309,7.0,11.0,64,0.00,,,0.00,,2013-02-21 23:32:00,
2013-02-21 18:42:00,29.0,18.0,29.91,NW,309,7.0,11.0,64,0.00,,,0.00,,2013-02-21 23:42:00,
2013-02-21 18:53:00,29.0,18.0,29.92,NW,311,4.0,14.0,64,0.00,,,0.00,,2013-02-21 23:53:00,
2013-02-21 19:01:00,28.0,18.0,29.93,NW,322,7.0,14.0,65,0.00,,,0.00,,2013-02-22 00:01:00,
2013-02-21 19:11:00,28.0,18.0,29.93,NW,322,7.0,14.0,65,0.00,,,0.00,,2013-02-22 00:11:00,
2013-02-21 19:22:00,28.0,17.0,29.93,WNW,290,7.0,15.0,64,0.00,,,0.00,,2013-02-22 00:22:00,
2013-02-21 19:32:00,28.0,18.0,29.95,NW,318,5.0,18.0,65,0.00,,,0.00,,2013-02-22 00:32:00,
2013-02-21 19:42:00,28.0,18.0,29.95,NW,318,5.0,18.0,65,0.00,,,0.00,,2013-02-22 00:42:00,
2013-02-21 19:52:00,28.0,18.0,29.96,WNW,293,6.0,16.0,66,0.00,,,0.00,,2013-02-22 00:52:00,
2013-02-21 20:01:00,29.0,19.0,29.96,WNW,292,4.0,14.0,66,0.00,,,0.00,,2013-02-22 01:01:00,
2013-02-21 20:11:00,29.0,19.0,29.96,WNW,292,4.0,14.0,66,0.00,,,0.00,,2013-02-22 01:11:00,
2013-02-21 20:22:00,29.0,19.0,29.97,WNW,303,4.0,12.0,67,0.00,,,0.00,,2013-02-22 01:22:00,
2013-02-21 20:32:00,29.0,19.0,29.98,NNW,343,6.0,17.0,67,0.00,,,0.00,,2013-02-22 01:32:00,
2013-02-21 20:42:00,29.0,19.0,29.98,NNW,343,6.0,17.0,67,0.00,,,0.00,,2013-02-22 01:42:00,
2013-02-21 20:52:00,29.0,19.0,30.00,NW,312,4.0,17.0,67,0.00,,,0.00,,2013-02-22 01:52:00,
2013-02-21 21:02:00,29.0,20.0,30.01,NNW,341,6.0,15.0,68,0.00,,,0.00,,2013-02-22 02:02:00,
2013-02-21 21:11:00,29.0,20.0,30.01,NNW,341,6.0,15.0,68,0.00,,,0.00,,2013-02-22 02:11:00,
2013-02-21 21:21:00,30.0,20.0,30.02,NNE,26,4.0,15.0,67,0.00,,,0.00,,2013-02-22 02:21:00,
2013-02-21 21:32:00,29.0,19.0,30.02,WNW,284,4.0,11.0,67,0.00,,,0.00,,2013-02-22 02:32:00,
2013-02-21 21:42:00,29.0,19.0,30.02,WNW,284,4.0,11.0,67,0.00,,,0.00,,2013-02-22 02:42:00,
2013-02-21 21:52:00,30.0,20.0,30.03,NW,313,5.0,17.0,67,0.00,,,0.00,,2013-02-22 02:52:00,
2013-02-21 22:02:00,30.0,20.0,30.04,NW,323,4.0,13.0,67,0.00,,,0.00,,2013-02-22 03:02:00,
2013-02-21 22:11:00,30.0,20.0,30.04,NW,323,4.0,13.0,67,0.00,,,0.00,,2013-02-22 03:11:00,
2013-02-21 22:21:00,30.0,20.0,30.05,NNW,333,6.0,15.0,67,0.00,,,0.00,,2013-02-22 03:21:00,
2013-02-21 22:32:00,30.0,20.0,30.06,NW,324,3.0,12.0,67,0.00,,,0.00,,2013-02-22 03:32:00,
2013-02-21 22:42:00,30.0,20.0,30.06,NW,324,3.0,12.0,67,0.00,,,0.00,,2013-02-22 03:42:00,
2013-02-21 22:52:00,29.0,20.0,30.07,North,5,3.0,10.0,68,0.00,,,0.00,,2013-02-22 03:52:00,
2013-02-21 23:02:00,29.0,20.0,30.07,ENE,69,3.0,11.0,68,0.00,,,0.00,,2013-02-22 04:02:00,
2013-02-21 23:11:00,29.0,20.0,30.07,ENE,69,3.0,11.0,68,0.00,,,0.00,,2013-02-22 04:11:00,
2013-02-21 23:21:00,29.0,20.0,30.08,NE,49,2.0,11.0,69,0.00,,,0.00,,2013-02-22 04:21:00,
2013-02-21 23:32:00,29.0,20.0,30.09,NNW,341,4.0,11.0,70,0.00,,,0.00,,2013-02-22 04:32:00,
2013-02-21 23:42:00,29.0,20.0,30.09,NNW,341,4.0,11.0,70,0.00,,,0.00,,2013-02-22 04:42:00,
2013-02-21 23:52:00,29.0,21.0,30.10,North,11,4.0,9.0,71,0.00,,,0.00,,2013-02-22 04:52:00,